Change the Weather History Date:

Thursday, January 13, 2011

  Actual Average Record
Temperature  
Mean Temperature 28 °F 41 °F  
Max Temperature 37 °F 50 °F 76 °F (1932)
Min Temperature 18 °F 33 °F 14 °F (1962)
Degree Days  
Heating Degree Days 38 24  
Month to date heating degree days 312  
Since 1 July heating degree days 1508  
Moisture  
Dew Point 14 °F    
Average Humidity 62    
Maximum Humidity 74    
Minimum Humidity 39    
Precipitation  
Precipitation 0.00 in 0.15 in 1.40 in (1993)
Month to date precipitation 1.74  
Year to date precipitation 1.74  
Sea Level Pressure  
Sea Level Pressure 30.44 in    
Wind  
Wind Speed 9 mph (WNW)    
Max Wind Speed 13 mph    
Max Gust Speed -    
Visibility 10 miles    
Events      
T = Trace of Precipitation, MM = Missing Value Source: NWS Daily Summary

Daily Weather History Graph

Daily Weather History Graph

Search for Another Location

Airport or City:

Trip Planner

Search our weather history database for the weather conditions in past years. The results will help you decide how hot, cold, wet, or windy it might be!

Date:

Astronomy

Jan. 13, 2011 Rise Set
Actual Time 7:41 AM EST 5:46 PM EST
Civil Twilight 7:14 AM EST 6:13 PM EST
Nautical Twilight 6:43 AM EST 6:44 PM EST
Astronomical Twilight 6:13 AM EST 7:15 PM EST
Moon 12:26 PM EST (1/13) 1:42 AM EST (1/13)
Length of Visible Light 10h 59m
Length of Day
10h 04m
First Quarter, 62% of the Moon is Illuminated
Jan 13
First Quarter
Jan 19
Full
Jan 26
Last Quarter
Feb 2
New
Feb 11
First Quarter

Hourly Weather History & Observations

Time (EST) Temp. Windchill Dew Point Humidity Pressure Visibility Wind Dir Wind Speed Gust Speed Precip Events Conditions
12:53 AM 19.9 °F 7.9 °F 10.9 °F 68% 30.42 in 10.0 mi WNW 11.5 mph - N/A   Clear
1:53 AM 19.9 °F 11.1 °F 10.9 °F 68% 30.43 in 10.0 mi NW 6.9 mph - N/A   Clear
2:53 AM 19.9 °F 7.3 °F 10.9 °F 68% 30.44 in 10.0 mi WNW 12.7 mph - N/A   Clear
3:53 AM 19.0 °F 10.0 °F 10.9 °F 71% 30.45 in 10.0 mi WNW 6.9 mph - N/A   Clear
4:53 AM 18.0 °F 11.1 °F 10.9 °F 74% 30.45 in 10.0 mi West 4.6 mph - N/A   Clear
5:53 AM 18.0 °F 7.7 °F 10.9 °F 74% 30.46 in 10.0 mi WNW 8.1 mph - N/A   Clear
6:53 AM 18.0 °F 7.7 °F 10.9 °F 74% 30.47 in 10.0 mi WNW 8.1 mph - N/A   Clear
7:53 AM 18.0 °F 6.9 °F 10.9 °F 74% 30.49 in 10.0 mi NW 9.2 mph - N/A   Clear
8:53 AM 19.9 °F 8.6 °F 12.0 °F 71% 30.51 in 10.0 mi NW 10.4 mph - N/A   Clear
9:53 AM 23.0 °F 12.4 °F 12.9 °F 65% 30.52 in 10.0 mi WNW 10.4 mph - N/A   Clear
10:53 AM 26.1 °F 15.6 °F 14.0 °F 60% 30.51 in 10.0 mi WNW 11.5 mph - N/A   Clear
11:53 AM 28.0 °F 18.6 °F 15.1 °F 58% 30.48 in 10.0 mi West 10.4 mph - N/A   Clear
12:53 PM 30.9 °F 22.8 °F 15.1 °F 52% 30.43 in 10.0 mi WNW 9.2 mph - N/A   Clear
1:53 PM 34.0 °F 28.0 °F 15.1 °F 46% 30.40 in 10.0 mi WNW 6.9 mph - N/A   Clear
2:53 PM 37.9 °F 33.5 °F 15.1 °F 39% 30.38 in 10.0 mi North 5.8 mph - N/A   Clear
3:53 PM 37.0 °F 33.3 °F 14.0 °F 39% 30.38 in 10.0 mi WSW 4.6 mph - N/A   Clear
4:53 PM 36.0 °F 30.3 °F 17.1 °F 46% 30.39 in 10.0 mi WSW 6.9 mph - N/A   Clear
5:53 PM 32.0 °F 24.2 °F 17.1 °F 54% 30.41 in 10.0 mi WSW 9.2 mph - N/A   Clear
6:53 PM 30.0 °F 21.7 °F 17.1 °F 59% 30.42 in 10.0 mi WSW 9.2 mph - N/A   Clear
7:53 PM 28.0 °F 20.8 °F 17.1 °F 63% 30.42 in 10.0 mi West 6.9 mph - N/A   Clear
9:53 PM 25.0 °F 18.1 °F 16.0 °F 69% 30.43 in 10.0 mi West 5.8 mph - N/A   Clear
10:53 PM 24.1 °F 19.7 °F 16.0 °F 71% 30.42 in 10.0 mi West 3.5 mph - N/A   Clear
11:53 PM 24.1 °F 19.7 °F 16.0 °F 71% 30.41 in 10.0 mi West 3.5 mph - N/A   Clear